Location: Oshawa
(43.9000°N, 78.8670°W)
Time: 22:19:49
(UTC-04:00)

Altair - Visible Passes

Search period start: 30 April 2016 00:00
Search period end: 10 May 2016 00:00
Orbit: 1502 x 1682 km, 47.2° (Epoch: 29 April)

Date Brightness Start Highest point End Pass type
(mag) Time Alt. Az. Time Alt. Az. Time Alt. Az.
30 Apr 7.5 01:30:23 10° WNW 01:39:57 75° N 01:49:12 10° E visible
30 Apr 7.3 03:35:29 10° WNW 03:44:47 70° SSW 03:53:51 10° SE visible
30 Apr 7.8 20:55:50 10° SSW 21:05:06 47° SE 21:14:02 10° ENE visible
30 Apr 7.5 22:59:38 10° WSW 23:09:27 86° NNW 23:18:54 10° ENE visible
01 May 7.6 01:05:09 10° W 01:14:45 74° N 01:24:01 10° E visible
01 May 7.3 03:10:18 10° WNW 03:19:39 74° SSW 03:28:48 10° SE visible
01 May 8.1 05:15:52 10° WNW 05:23:12 27° SW 05:30:29 10° S visible
01 May 7.5 22:34:25 10° WSW 22:44:17 89° NNW 22:53:46 10° ENE visible
02 May 7.6 00:39:55 10° W 00:49:32 73° N 00:58:50 10° E visible
02 May 7.3 02:45:07 10° WNW 02:54:32 77° SSW 03:03:43 10° ESE visible
02 May 8.0 04:50:33 10° WNW 04:58:11 30° SW 05:05:45 10° S visible
02 May 7.5 22:09:13 10° WSW 22:19:06 88° SSE 22:28:37 10° ENE visible
03 May 7.6 00:14:40 10° W 00:24:20 73° N 00:33:40 10° E visible
03 May 7.3 02:19:56 10° WNW 02:29:25 81° SSW 02:38:37 10° ESE visible
03 May 7.9 04:25:16 10° WNW 04:33:11 33° SW 04:40:59 10° SSE visible
03 May 7.5 21:44:01 10° WSW 21:53:55 85° SSE 22:03:28 10° ENE visible
03 May 7.6 23:49:25 10° W 23:59:08 73° N 00:08:29 10° E visible
04 May 7.3 01:54:43 10° WNW 02:04:16 84° SSW 02:13:30 10° ESE visible
04 May 7.8 04:00:00 10° WNW 04:08:09 36° SW 04:16:10 10° SSE visible
04 May 7.5 21:18:50 10° WSW 21:28:46 82° SSE 21:38:19 10° ENE visible
04 May 7.6 23:24:10 10° W 23:33:55 73° N 23:43:19 10° E visible
05 May 7.3 01:29:31 10° WNW 01:39:07 87° SSW 01:48:23 10° ESE visible
05 May 7.7 03:34:43 10° WNW 03:43:07 39° SW 03:51:20 10° SSE visible
05 May 7.6 20:53:40 10° WSW 21:03:36 79° SSE 21:13:10 10° ENE visible
05 May 7.7 22:58:54 10° W 23:08:43 73° N 23:18:08 10° E visible
06 May 7.3 01:04:19 10° WNW 01:13:58 90° NE 01:23:15 10° ESE visible
06 May 7.6 03:09:29 10° WNW 03:18:04 42° SW 03:26:27 10° SSE visible
06 May 7.7 22:33:40 10° W 22:43:30 74° N 22:52:57 10° E visible
07 May 7.4 00:39:06 10° WNW 00:48:48 87° NNE 00:57:15 14° ESE visible
07 May 7.6 02:44:14 10° WNW 02:53:01 45° SW 02:54:58 40° SSW visible
07 May9.005:01:26SSW05:01:26SSW04:52:43WSWvisible
07 May 7.7 22:08:24 10° W 22:18:17 75° N 22:27:47 10° E visible
08 May 7.4 00:13:53 10° WNW 00:23:37 84° NNE 00:31:02 18° ESE visible
08 May 7.5 02:19:01 10° WNW 02:27:57 48° SW 02:28:55 47° SSW visible
08 May 7.7 21:43:08 10° W 21:53:04 76° N 22:02:36 10° ENE visible
08 May 7.5 23:48:41 10° WNW 23:58:27 82° NNE 00:05:51 19° ESE visible
09 May 7.5 01:53:47 10° WNW 02:02:53 52° SW 02:03:46 51° SSW visible
09 May 9.0 04:01:15 10° W 04:01:41 11° W 04:01:41 11° W visible
09 May 7.8 21:17:53 10° W 21:27:51 77° N 21:37:26 10° ENE visible
09 May 7.5 23:23:27 10° WNW 23:33:15 80° NNE 23:41:01 17° E visible
